Location: Unspecified
(44.4377°N, 88.0525°W)
Time: 03:03:32
(UTC-06:00)

CZ-3 Stage 3 - Pass Details

Date: 29 January 2021
Orbit: 398 x 34787 km, 30.8° (Epoch: 27 February)

Event Time Altitude Azimuth Distance (km) Brightness Sun altitude
Rises 20:30:54 0° 275° (W) 8,121 8.7 -38.0°
Reaches altitude 10° 20:34:30 10° 272° (W) 8,191 8.4 -38.6°
Maximum altitude 21:36:51 59° 216° (SW) 18,937 9.2 -49.0°
Drops below altitude 10° 04:02:37 10° 233° (SW) 30,635 10.1 -34.0°
Sets 04:59:08 0° 228° (SW) 23,538 9.6 -23.9°
